Regional Weather Roundup
Issued by NWS

Home | Current Version | Previous Version | Graphics & Text | Print | Product List | Glossary On
Versions: 1 2 3 4 5 6 7 8 9 10 11 12 13 14 15 16 17 18 19 20 21 22 23 24 25 26 27 28 29 30 31 32 33 34 35 36 37 38 39 40 41 42 43 44 45 46 47 48 49 50
000
ASUS43 KDMX 221901
RWRIA

WEATHER ROUNDUP FOR IOWA
NATIONAL WEATHER SERVICE DES MOINES IA
200 PM CDT WED MAR 22 2017

NOTE: "FAIR" INDICATES FEW OR NO CLOUDS BELOW 12,000 FEET WITH NO
SIGNIFICANT WEATHER AND/OR OBSTRUCTIONS TO VISIBILITY.

* - THESE STATIONS ARE NOT NWS STATIONS...THUS NOT UNDER NWS
QUALITY CONTROL.  THEY ALSO DO NOT REPORT WEATHER SUCH
AS PRECIPITATION OR FOG.

IAZ001>003-012>014-020>022-031>034-043>046-222000-
   NORTHWEST IOWA

CITY           SKY/WX    TMP DP  RH WIND       PRES   REMARKS
CARROLL *      CLOUDY    37  27  65 SE16      30.39F WCI  28
CHEROKEE *     CLOUDY    35  23  62 SE15      30.38F WCI  25
DENISON *      CLOUDY    37  27  65 SE12G21   30.35F WCI  30
LE MARS *      CLOUDY    36  21  55 SE14      30.36F WCI  27
ORANGE CITY *  CLOUDY    34  23  64 SE10      30.35F WCI  26
SHELDON *      CLOUDY    34  25  69 SE15      30.35F WCI  24
SIOUX CITY     CLOUDY    39  23  52 SE18      30.34F WCI  30
SPENCER        CLOUDY    34  23  64 SE18      30.40F WCI  23
STORM LAKE *   PTSUNNY   36  23  60 SE20      30.37F WCI  25
$$

IAZ055>058-069>071-079>083-090>094-222000-
   SOUTHWEST IOWA

CITY           SKY/WX    TMP DP  RH WIND       PRES   REMARKS
ATLANTIC *     CLOUDY    43  27  52 E13G20    30.36F
AUDUBON *      CLOUDY    37  28  70 E14       30.39F WCI  29
CLARINDA *     SUNNY     48  27  43 SE10G18   30.38F
COUNCIL BLFS * SUNNY     48  23  37 SE16      30.32F
CRESTON *      PTSUNNY   43  27  52 SE14G21   30.39F
HARLAN  *      CLOUDY    43  27  52 E17       30.38F
LAMONI         MOSUNNY   45  28  51 SE10G18   30.38F
RED OAK *      PTSUNNY   48  27  43 SE13G20   30.35F
SHENANDOAH *   SUNNY     50  25  37 E12G20    30.35F
$$

IAZ047>049-059>061-072>074-084-222000-
   CENTRAL IOWA

CITY           SKY/WX    TMP DP  RH WIND       PRES   REMARKS
AMES           CLOUDY    41  24  51 SE10      30.44F
ANKENY *       CLOUDY    41  23  48 SE15      30.45F
BOONE *        CLOUDY    39  23  52 SE13G21   30.42F WCI  32
CHARITON *     CLOUDY    45  23  42 SE15      30.41F
DES MOINES     CLOUDY    43  25  49 E9        30.44F
GRINNELL*      PTSUNNY   42  19  40 E14       30.47F
MARSHALLTOWN   PTSUNNY   40  21  46 E13       30.45F WCI  32
NEWTON *       PTSUNNY   43  21  42 SE8G21    30.44F
PELLA *        MOSUNNY   43  25  50 E13G20    30.45F
PERRY *        CLOUDY    39  22  51 SE13      30.43F WCI  31
$$

IAZ004>006-015-016-023>025-035-036-222000-
   NORTH CENTRAL IOWA

CITY           SKY/WX    TMP DP  RH WIND       PRES   REMARKS
ALGONA *       CLOUDY    36  23  60 SE16      30.43F WCI  26
CLARION *      PTSUNNY   37  23  56 S15G24    30.44F WCI  28
ESTHERVILLE    CLOUDY    32  23  69 SE15      30.42F WCI  22
FORT DODGE *   CLOUDY    37  21  52 SE8       30.43F WCI  31
MASON CITY     CLOUDY    37  20  50 SE16G22   30.46F WCI  28
FOREST CITY *  CLOUDY    36  23  60 SE12      30.45F WCI  27
WEBSTER CITY * CLOUDY    41  23  48 SE13G20   30.41F
IOWA FALLS *   PTSUNNY   40  22  48 SE14      30.46F WCI  33
$$

IAZ007>011-017>019-026>030-037>042-050>054-066-222000-
   NORTHEAST IOWA

CITY           SKY/WX    TMP DP  RH WIND       PRES   REMARKS
CEDAR RAPIDS   SUNNY     42  17  36 SE15G22   30.48F
CHARLES CITY * SUNNY     37  14  38 SE15G22   30.48F WCI  28
CLINTON *      SUNNY     39  16  39 E13       30.53F WCI  31
DECORAH *      SUNNY     36   9  32 SE9G18    30.49F WCI  29
DUBUQUE        SUNNY     36  12  37 E14G20    30.51F WCI  27
MONTICELLO *   SUNNY     39  14  35 E12       30.51F WCI  32
OELWEIN *      SUNNY     37  16  41 SE15G23   30.49F WCI  28
WATERLOO       SUNNY     40  17  39 SE10G17   30.48F WCI  33
$$

IAZ064-065-067-068-078-222000-
   EAST CENTRAL IOWA

CITY           SKY/WX    TMP DP  RH WIND       PRES   REMARKS
DAVENPORT      SUNNY     41  16  36 E14G21    30.52F
IOWA CITY      SUNNY     43  18  36 E13       30.51F
MUSCATINE *    SUNNY     43  18  36 SE10G18   30.51F
QUAD CITIES    SUNNY     41  17  38 E9G20     30.52F
$$

IAZ062-063-075>077-085>089-095>099-222000-
   SOUTHEAST IOWA

CITY           SKY/WX    TMP DP  RH WIND       PRES   REMARKS
BURLINGTON     SUNNY     44  21  40 E10       30.47F
FAIRFIELD *    SUNNY     43  21  42 E13       30.47F
FORT MADISON * SUNNY     48  23  37 E13G18    30.48F
KEOKUK *       SUNNY     45  19  36 SE14      30.46F
OSKALOOSA *    PTSUNNY   42  24  49 E12       30.46F
CENTERVILLE *    N/A     46  23  39 E12G18    30.43F
OTTUMWA        MOSUNNY   44  23  43 E14       30.45F
WASHINGTON *   SUNNY     43  18  36 SE15G21   30.49F
$$

ABBREVIATIONS USED IN REMARKS
   TC - TEMPERATURES IN CELSIUS
  WCI - WIND CHILL INDEX
   HX - HEAT INDEX
  VSB - VISIBILITY
$$





USA.gov is the U.S. government's official web portal to all federal, state and local government web resources and services.